Regional Weather Roundup
Issued by NWS

Home | Current Version | Previous Version | Text Only | Print | Product List | Glossary Off
Versions: 1 2 3 4 5 6 7 8 9 10 11 12 13 14 15 16 17 18 19 20 21 22 23 24 25 26 27 28 29 30 31 32 33 34 35 36 37 38 39 40 41 42 43 44 45 46 47 48 49 50

000
ASUS43 KOAX 271010
RWRNE

WEATHER ROUNDUP FOR NEBRASKA
NATIONAL WEATHER SERVICE OMAHA NE
500 AM CDT SAT AUG 27 2016

NOTES: SATELLITE DATA IS BEING USED TO AUGMENT CLOUD COVER ABOVE
       12000 FEET.
       "FAIR" INDICATES FEW OR NO CLOUDS BELOW 12,000 FEET WITH NO
       SIGNIFICANT WEATHER AND/OR OBSTRUCTIONS TO VISIBILITY.

  * THESE STATIONS DO NOT REPORT WEATHER SUCH AS RAIN...SNOW OR FOG.

NEZ001>004-019>022-054>056-271100-
NEBRASKA PANHANDLE

CITY           SKY/WX    TMP DP  RH WIND       PRES   REMARKS
SCOTTSBLUFF    PTCLDY    53  51  93 E7        30.05S
ALLIANCE       CLOUDY    55  54  96 S14       30.05S FOG
CHADRON        CLEAR     53  50  89 NE7       30.02S
KIMBALL        CLOUDY    52  52 100 CALM      30.08F
SIDNEY         FOG       51  51 100 S5        30.08F VSB 1/4
$$

NEZ057>060-069>072-079>082-271100-
SOUTHWEST NEBRASKA

CITY           SKY/WX    TMP DP  RH WIND       PRES   REMARKS
NORTH PLATTE   FOG       54  51  90 NW3       30.06F VSB 1/4
IMPERIAL       FOG       50  49  96 CALM      30.05F VSB 3/4
LEXINGTON      CLEAR     54  52  94 NW7       30.04S FOG
MCCOOK         CLEAR     53  52  96 N5        30.04F
OGALLALA       CLOUDY    58  55  92 CALM      30.07S FOG
$$

NEZ005>010-023>029-035>040-094-271100-
NORTH CENTRAL NEBRASKA

CITY           SKY/WX    TMP DP  RH WIND       PRES   REMARKS
VALENTINE      CLOUDY    54  53  97 N3        30.01R
AINSWORTH      FOG       57  57 100 S7        30.01F VSB 1/2
BROKEN BOW     CLOUDY    60  60 100 W6        30.03S FOG
O`NEILL        FOG       59  58  96 CALM      30.00F VSB 1/4
ORD            CLOUDY    63  61  93 CALM      30.01S
THEDFORD       FOG       54  53  99 CALM      30.05S VSB 1/4
$$

NEZ041-046>049-061>064-073>077-083>087-271100-
SOUTH CENTRAL NEBRASKA

CITY           SKY/WX    TMP DP  RH WIND       PRES   REMARKS
GRAND ISLAND   MOCLDY    62  61  96 SW3       30.02S FOG
AURORA         CLOUDY    64  64 100 CALM      30.01S FOG
HASTINGS       FOG       62  61  96 CALM      30.03S VSB 1/4
HEBRON         CLOUDY    67  66  97 CALM      30.01R
HOLDREGE       CLEAR     54  53  95 NW5       30.02F
KEARNEY *      CLOUDY    61  55  82 W6        30.02S
YORK           FOG       66  64  94 CALM      30.02R VSB 1
$$

NEZ011>018-030>034-042>045-271100-
NORTHEAST NEBRASKA

CITY           SKY/WX    TMP DP  RH WIND       PRES   REMARKS
NORFOLK        FOG       63  62  97 CALM      30.01S VSB 3/4
ALBION         CLOUDY    63  61  94 CALM      30.02R FOG
BLAIR          FOG       65  64  97 CALM      30.00S VSB 1/2
FREMONT        CLOUDY    65  65  99 SE3       30.00S FOG
TEKAMAH        CLOUDY    65  64  97 CALM      29.99F FOG
WAYNE          FOG       64  63  98 CALM      30.01S VSB 1/2
$$

NEZ050>053-065>068-078-088>093-271100-
SOUTHEAST NEBRASKA

CITY           SKY/WX    TMP DP  RH WIND       PRES   REMARKS
LINCOLN        CLOUDY    68  66  93 SE3       30.00F
OMAHA EPPLEY   CLOUDY    66  63  90 SE5       29.99S FOG
BEATRICE       CLOUDY    67  66  97 S3        29.98R
FALLS CITY     CLOUDY    68  68 100 S3        29.98F
NEBRASKA CITY  LGT RAIN  67  67 100 S5        29.99S VSB 3/4
PLATTSMOUTH    FOG       67  67  99 SE6       29.99F VSB 1
$$

NEZ044-045-051>053-067-271100-
OMAHA AREA

CITY           SKY/WX    TMP DP  RH WIND       PRES   REMARKS
OMAHA EPPLEY   CLOUDY    66  63  90 SE5       29.99S FOG
BLAIR          FOG       65  64  97 CALM      30.00S VSB 1/2
FREMONT        CLOUDY    65  65  99 SE3       30.00S FOG
MILLARD        CLOUDY    67  65  95 CALM      29.99F FOG
OFFUTT AFB       N/A     66  66 100 E5        29.98F FOG
PLATTSMOUTH    FOG       67  67  99 SE6       29.99F VSB 1
WAHOO          FOG       66  65  96 CALM      30.00S VSB 1/4
$$




USA.gov is the U.S. government's official web portal to all federal, state and local government web resources and services.